EN

Hourly Weather Barvinkiv

Today, 28 January, Thursday

Time Temperature Precipitation Wind Pressure Humidity
00:00 -8°C° 0 mm 3 mps 695 mmHg 100%
01:00 -7°C° 0 mm 2 mps 694 mmHg 100%
02:00 -7°C° 0 mm 2 mps 694 mmHg 100%
03:00 -7°C° 0 mm 2 mps 694 mmHg 100%
04:00 -8°C° 0 mm 2 mps 694 mmHg 100%
05:00 -8°C° 0 mm 2 mps 694 mmHg 100%
06:00 -9°C° 0 mm 3 mps 694 mmHg 100%
07:00 -8°C° 0.1 mm 3 mps 694 mmHg 100%
08:00 -8°C° 0.1 mm 3 mps 694 mmHg 100%
09:00 -8°C° 0 mm 3 mps 694 mmHg 100%
10:00 -7°C° 0 mm 2 mps 694 mmHg 100%
11:00 -7°C° 0 mm 3 mps 694 mmHg 99%
12:00 -6°C° 0 mm 3 mps 694 mmHg 96%
13:00 -6°C° 0 mm 3 mps 694 mmHg 94%
14:00 -5°C° 0 mm 3 mps 693 mmHg 91%
15:00 -4°C° 0 mm 2 mps 693 mmHg 91%
16:00 -2°C° 0 mm 1 mps 693 mmHg 94%
17:00 -5°C° 0 mm 2 mps 693 mmHg 86%
18:00 -8°C° 0 mm 3 mps 692 mmHg 82%
19:00 -10°C° 0 mm 3 mps 691 mmHg 79%
20:00 -10°C° 0 mm 3 mps 691 mmHg 75%
21:00 -10°C° 0 mm 3 mps 691 mmHg 76%
22:00 -10°C° 0 mm 4 mps 691 mmHg 83%
23:00 -9°C° 0 mm 4 mps 691 mmHg 84%

Tomorrow, 29 January, Friday

Time Temperature Precipitation Wind Pressure Humidity
00:00 -7°C° 0 mm 3 mps 690 mmHg 85%
01:00 -7°C° 0 mm 4 mps 690 mmHg 84%
02:00 -5°C° 0 mm 4 mps 690 mmHg 84%
03:00 -5°C° 0 mm 4 mps 690 mmHg 85%
04:00 -5°C° 0 mm 4 mps 689 mmHg 87%
05:00 -4°C° 0 mm 4 mps 689 mmHg 87%
06:00 -4°C° 0 mm 4 mps 688 mmHg 88%
07:00 -3°C° 0 mm 4 mps 688 mmHg 90%
08:00 -3°C° 0 mm 4 mps 689 mmHg 90%
09:00 -2°C° 0 mm 3 mps 689 mmHg 91%
10:00 -1°C° 0 mm 3 mps 689 mmHg 93%
11:00 -1°C° 0 mm 2 mps 690 mmHg 94%
12:00 +1°C° 0 mm 2 mps 690 mmHg 90%
13:00 +2°C° 0 mm 2 mps 690 mmHg 90%
14:00 +2°C° 0 mm 2 mps 690 mmHg 92%
15:00 +1°C° 0 mm 2 mps 690 mmHg 93%
16:00 +1°C° 0 mm 2 mps 690 mmHg 93%
17:00 -1°C° 0 mm 2 mps 689 mmHg 89%
18:00 0°C° 0 mm 1 mps 689 mmHg 90%
19:00 -3°C° 0 mm 2 mps 689 mmHg 92%
20:00 -3°C° 0 mm 2 mps 689 mmHg 92%
21:00 -3°C° 0 mm 2 mps 689 mmHg 90%
22:00 -4°C° 0 mm 3 mps 688 mmHg 88%
23:00 -4°C° 0 mm 4 mps 688 mmHg 90%

Day after tomorrow, 30 January, Saturday

Time Temperature Precipitation Wind Pressure Humidity
00:00 -4°C° 0 mm 4 mps 687 mmHg 90%
01:00 -3°C° 0 mm 4 mps 687 mmHg 91%
02:00 -1°C° 0 mm 3 mps 687 mmHg 89%
03:00 -1°C° 0 mm 3 mps 686 mmHg 92%
04:00 -1°C° 0 mm 5 mps 685 mmHg 93%
05:00 -1°C° 0 mm 5 mps 685 mmHg 93%
06:00 -1°C° 0 mm 5 mps 684 mmHg 93%
07:00 -1°C° 0 mm 5 mps 685 mmHg 94%
08:00 0°C° 0 mm 3 mps 685 mmHg 92%
09:00 +1°C° 0 mm 3 mps 685 mmHg 91%
10:00 0°C° 0 mm 5 mps 685 mmHg 91%
11:00 0°C° 0 mm 5 mps 685 mmHg 93%
12:00 +1°C° 0 mm 5 mps 685 mmHg 94%
13:00 0°C° 0 mm 5 mps 685 mmHg 93%
14:00 0°C° 0 mm 4 mps 685 mmHg 91%
15:00 0°C° 0 mm 4 mps 685 mmHg 90%
16:00 -1°C° 0 mm 4 mps 684 mmHg 90%
17:00 -3°C° 0 mm 6 mps 684 mmHg 89%
18:00 -3°C° 0 mm 6 mps 683 mmHg 91%
19:00 -1°C° 0 mm 5 mps 684 mmHg 89%
20:00 -2°C° 0 mm 4 mps 684 mmHg 91%
21:00 -2°C° 0 mm 4 mps 685 mmHg 89%
22:00 -4°C° 0 mm 4 mps 686 mmHg 85%
23:00 -7°C° 0 mm 4 mps 687 mmHg 88%

31 January, Sunday

Time Temperature Precipitation Wind Pressure Humidity
00:00 -8°C° 0 mm 3 mps 688 mmHg 87%
01:00 -9°C° 0 mm 3 mps 688 mmHg 86%
02:00 -9°C° 0 mm 2 mps 688 mmHg 85%
03:00 -9°C° 0 mm 2 mps 689 mmHg 82%
04:00 -12°C° 0 mm 3 mps 689 mmHg 83%
05:00 -10°C° 0 mm 2 mps 690 mmHg 84%
06:00 -10°C° 0 mm 2 mps 690 mmHg 86%
07:00 -10°C° 0 mm 2 mps 691 mmHg 86%
08:00 -10°C° 0 mm 2 mps 692 mmHg 85%
09:00 -10°C° 0 mm 2 mps 692 mmHg 84%
10:00 -8°C° 0 mm 1 mps 693 mmHg 85%
11:00 -7°C° 0 mm 1 mps 693 mmHg 93%
12:00 -5°C° 0 mm 0 mps 694 mmHg 91%
13:00 -4°C° 0 mm 0 mps 694 mmHg 90%
14:00 -2°C° 0 mm 1 mps 694 mmHg 91%
15:00 -4°C° 0 mm 2 mps 693 mmHg 96%
16:00 -4°C° 0 mm 2 mps 693 mmHg 100%
17:00 -4°C° 0 mm 2 mps 693 mmHg 100%
18:00 -5°C° 0 mm 2 mps 693 mmHg 100%
19:00 -5°C° 0.1 mm 2 mps 693 mmHg 100%
20:00 -5°C° 0.1 mm 2 mps 693 mmHg 100%
21:00 -5°C° 0 mm 2 mps 692 mmHg 100%
22:00 -3°C° 0 mm 1 mps 692 mmHg 100%
23:00 -4°C° 0 mm 1 mps 691 mmHg 98%

1 February, Monday

Time Temperature Precipitation Wind Pressure Humidity
00:00 -4°C° 0 mm 1 mps 690 mmHg 96%
01:00 -7°C° 0 mm 2 mps 690 mmHg 96%
02:00 -6°C° 0 mm 1 mps 689 mmHg 95%
03:00 -6°C° 0.1 mm 1 mps 689 mmHg 100%
04:00 -6°C° 0.3 mm 1 mps 688 mmHg 100%
05:00 -4°C° 0.4 mm 1 mps 688 mmHg 100%
06:00 -4°C° 0.6 mm 1 mps 688 mmHg 100%
07:00 -5°C° 0.3 mm 0 mps 688 mmHg 100%
08:00 -5°C° 0.4 mm 0 mps 688 mmHg 100%
09:00 -5°C° 0.3 mm 0 mps 688 mmHg 100%
10:00 -4°C° 0.1 mm 0 mps 688 mmHg 100%
11:00 -1°C° 0.1 mm 1 mps 688 mmHg 100%
12:00 0°C° 0 mm 1 mps 688 mmHg 100%
13:00 0°C° 0 mm 0 mps 688 mmHg 100%
14:00 +2°C° 0 mm 1 mps 689 mmHg 100%
15:00 +2°C° 0 mm 1 mps 689 mmHg 100%
16:00 +1°C° 0 mm 1 mps 689 mmHg 100%
17:00 0°C° 0 mm 1 mps 690 mmHg 100%
18:00 0°C° 0 mm 1 mps 690 mmHg 100%
19:00 -3°C° 0 mm 2 mps 690 mmHg 98%
20:00 -4°C° 0 mm 3 mps 691 mmHg 93%
21:00 -5°C° 0 mm 4 mps 692 mmHg 93%
22:00 -5°C° 0 mm 4 mps 692 mmHg 94%
23:00 -5°C° 0 mm 4 mps 693 mmHg 94%

2 February, Tuesday

Time Temperature Precipitation Wind Pressure Humidity
00:00 -5°C° 0 mm 4 mps 693 mmHg 93%
01:00 -5°C° 0 mm 4 mps 694 mmHg 92%
02:00 -5°C° 0 mm 4 mps 694 mmHg 92%
03:00 -5°C° 0 mm 4 mps 694 mmHg 91%
04:00 -4°C° 0 mm 4 mps 695 mmHg 90%
05:00 -2°C° 0 mm 3 mps 695 mmHg 89%
06:00 -3°C° 0 mm 4 mps 696 mmHg 90%
07:00 -3°C° 0 mm 4 mps 696 mmHg 91%
08:00 -3°C° 0 mm 4 mps 697 mmHg 92%
09:00 -2°C° 0 mm 4 mps 697 mmHg 92%
10:00 -2°C° 0 mm 4 mps 698 mmHg 93%
11:00 -1°C° 0 mm 4 mps 698 mmHg 91%
12:00 0°C° 0 mm 4 mps 699 mmHg 89%
13:00 0°C° 0 mm 4 mps 699 mmHg 89%
14:00 +2°C° 0 mm 3 mps 699 mmHg 89%
15:00 +2°C° 0 mm 3 mps 699 mmHg 91%
16:00 0°C° 0 mm 4 mps 698 mmHg 91%
17:00 -1°C° 0 mm 4 mps 698 mmHg 89%
18:00 -2°C° 0 mm 5 mps 698 mmHg 89%
19:00 -2°C° 0 mm 5 mps 698 mmHg 89%
20:00 -2°C° 0 mm 5 mps 698 mmHg 89%
21:00 -2°C° 0 mm 5 mps 697 mmHg 89%
22:00 -3°C° 0 mm 6 mps 697 mmHg 92%
23:00 -3°C° 0 mm 7 mps 697 mmHg 95%
Show more

We Need Your Consent

Meteoprog and our Service Providers may store and access personal data such as cookies, device identifiers or other similar technologies on your device and process such data to personalise content and ads, as well as provide social media features and to analyse the traffic.

  • Store and/or access information on your device

    Cookies, device identifiers or other information can be stored or accessed on your device for the purposes indicated above.

  • Personalised ads and content, ad and content measurement, audience insights, and products development

    Ads and content can be personalised based on a profile. More data can be added to better personalise ads and content. Ad and content performance can be measured. Insights about the audience who saw the ads and content can be derived. Such data can be used to develop or improve user’s experience, systems and software.

By clicking ‘I Agree’ you will allow the use of indicated cookies, device identifiers, web beacons or other similar technologies. Your settings can be changed in the browser on your device.

For certain purposes, legitimate interests may be relied on, rather than consent. You can read more about this in our Privacy and Cookie Policy.